Flag for U.S.A. Weather past 2 weeks in Hereford, Texas, U.S.A.

Now
45 °F

Clear.


Feels Like: 39 °F
Forecast: 34 / 53 °F
Wind: 10 mph from Northwest

Location: Clovis Municipal

Current Time: Dec 22, 2014 at 6:17:39 AM

Latest Report: Dec 22, 2014 at 5:55 AM


Visibility: 10 mi

Pressure: 29.69 "Hg

Humidity: 53%

Dew point: 28 °F

Location of HerefordLocation

Historic Weather in Hereford — Graph

°F

Hereford temperature yesterday

Maximum temperature yesterday: 63 °F (at 3:35 PM)
Minimum temperature yesterday: 28 °F (at 12:15 AM)
Average temperature yesterday: 46 °F

Past Weeks' High & Low Weather Summary

 TemperatureHumidityPressure
High70 °F (Dec 12, 2:15 PM)100% (Dec 11, 3:55 AM)30.40 "Hg (Dec 11, 3:55 AM)
Low19 °F (Dec 20, 8:15 AM)23% (Dec 12, 3:15 PM)29.63 "Hg (Dec 21, 6:35 PM)
Average44 °F64%30.08 "Hg
* Reported Dec 7 4:15 AM — Dec 22 4:55 AM, Hereford, Weather by CustomWeather, © 2014

Note: Actual official high and low records may vary slightly from our data, if they occured in-between our weather recording intervals... More about our weather records

Advertising

Hereford weather history for previous 24 hours

 ConditionsComfort  
Time TempWeatherWind HumidityBarometerVisibility
4:55 AM
Dec 22
46 °FClear.14 mph53%29.66 "Hg10 mi
4:35 AM46 °FClear.13 mph50%29.66 "Hg10 mi
4:15 AM46 °FClear.13 mph53%29.65 "Hg10 mi
3:55 AM46 °FClear.15 mph53%29.66 "Hg10 mi
3:35 AM45 °FClear.16 mph53%29.66 "Hg10 mi
3:15 AM45 °FClear.15 mph53%29.66 "Hg10 mi
2:55 AM46 °FClear.18 mph50%29.65 "Hg10 mi
2:35 AM46 °FClear.20 mph50%29.65 "Hg10 mi
2:15 AM46 °FClear.21 mph50%29.65 "Hg10 mi
1:55 AM46 °FClear.16 mph50%29.66 "Hg10 mi
1:35 AM46 °FClear.18 mph50%29.66 "Hg10 mi
1:15 AM46 °FClear.16 mph50%29.67 "Hg10 mi
12:55 AM48 °FClear.21 mph46%29.67 "Hg10 mi
12:35 AM48 °FClear.18 mph46%29.67 "Hg10 mi
12:15 AM48 °FClear.21 mph46%29.67 "Hg10 mi
11:55 PM
Dec 21
48 °FClear.23 mph46%29.66 "Hg10 mi
11:35 PM48 °FClear.24 mph46%29.66 "Hg10 mi
11:15 PM48 °FClear.24 mph46%29.66 "Hg10 mi
10:55 PM48 °FClear.23 mph46%29.67 "Hg10 mi
10:35 PM48 °FClear.21 mph43%29.66 "Hg10 mi
10:15 PM48 °FClear.20 mph43%29.66 "Hg10 mi
9:35 PM48 °FClear.21 mph43%29.65 "Hg10 mi
9:15 PM50 °FClear.20 mph40%29.65 "Hg10 mi
8:55 PM50 °FClear.25 mph40%29.64 "Hg10 mi
8:35 PM50 °FClear.22 mph40%29.64 "Hg10 mi
8:15 PM52 °FClear.24 mph38%29.63 "Hg10 mi
7:55 PM52 °FClear.22 mph38%29.64 "Hg10 mi
7:35 PM54 °FClear.22 mph35%29.64 "Hg10 mi
7:15 PM54 °FClear.22 mph35%29.64 "Hg10 mi
6:55 PM54 °FClear.18 mph35%29.64 "Hg10 mi
6:35 PM54 °FClear.15 mph33%29.63 "Hg10 mi
6:15 PM55 °FClear.24 mph33%29.64 "Hg10 mi
5:55 PM55 °FClear.24 mph33%29.64 "Hg10 mi
5:35 PM55 °FSunny.20 mph33%29.64 "Hg10 mi
5:15 PM55 °FSunny.21 mph33%29.64 "Hg10 mi
4:55 PM57 °FSunny.24 mph31%29.65 "Hg10 mi
4:35 PM57 °FSunny.28 mph31%29.65 "Hg10 mi
4:15 PM57 °FSunny.32 mph31%29.67 "Hg10 mi
3:35 PM63 °FSunny.28 mph25%29.64 "Hg10 mi
2:55 PM61 °FSunny.21 mph27%29.67 "Hg10 mi
2:35 PM59 °FSunny.20 mph29%29.70 "Hg10 mi
2:15 PM59 °FSunny.23 mph29%29.72 "Hg10 mi
1:55 PM57 °FSunny.23 mph31%29.73 "Hg10 mi
1:35 PM57 °FSunny.18 mph31%29.74 "Hg10 mi
1:15 PM57 °FSunny.18 mph31%29.76 "Hg10 mi
12:55 PM55 °FSunny.18 mph33%29.76 "Hg10 mi
12:35 PM55 °FSunny.16 mph33%29.78 "Hg10 mi
12:15 PM54 °FSunny.22 mph35%29.79 "Hg10 mi
11:55 AM54 °FSunny.20 mph35%29.82 "Hg10 mi
11:35 AM54 °FSunny.16 mph35%29.83 "Hg10 mi
11:15 AM52 °FSunny.20 mph38%29.85 "Hg10 mi
10:55 AM52 °FSunny.18 mph38%29.85 "Hg10 mi
10:35 AM48 °FSunny.21 mph43%29.86 "Hg10 mi
10:15 AM46 °FSunny.20 mph43%29.86 "Hg10 mi
9:55 AM45 °FSunny.16 mph46%29.83 "Hg10 mi
9:35 AM43 °FSunny.20 mph49%29.86 "Hg10 mi
9:15 AM41 °FSunny.17 mph53%29.87 "Hg10 mi
8:55 AM39 °FSunny.16 mph52%29.87 "Hg10 mi
8:35 AM37 °FSunny.14 mph60%29.87 "Hg10 mi
8:15 AM37 °FSunny.14 mph56%29.87 "Hg10 mi
7:55 AM36 °FSunny.14 mph60%29.88 "Hg10 mi
7:35 AM36 °FClear.15 mph60%29.87 "Hg10 mi
6:55 AM37 °FClear.13 mph52%29.88 "Hg10 mi
6:35 AM37 °FClear.16 mph56%29.87 "Hg10 mi
6:15 AM37 °FClear.16 mph52%29.87 "Hg10 mi
Weather by CustomWeather, © 2014

See weather overviewHow to use our weather pages